Regional Weather Roundup
Issued by NWS Sterling, VA

Home | Current Version | Previous Version | Text Only | Print | Product List | Glossary On
Versions: 1 2 3 4 5 6 7 8 9 10 11 12 13 14 15 16 17 18 19 20 21 22 23 24 25 26 27
000
ASUS41 KLWX 290611
RWRLWX

REGIONAL WEATHER ROUNDUP
NATIONAL WEATHER SERVICE BALTIMORE MD/WASHINGTON DC
200 AM EDT MON AUG 29 2016

Note: "FAIR" indicates few or no clouds below 12,000 feet
with no significant weather and/or obstructions to visibility.
 TC=TEMPERATURE CELSIUS

 * =Non NWS site. Station does not report precipitation (e.g. rain,
    snow, etc.), thunder, or fog.

DCZ001-MDZ009-015-VAZ040>042-051-053>054-290700-
WASHINGTON METRO

CITY           SKY/WX    TMP DP  RH WIND       PRES   REMARKS
WASHINGTON NAT MOCLDY    76  66  71 S5        30.18F
DULLES         MOCLDY    69  63  81 CALM      30.18F
ANDREWS AFB    PTCLDY    67  64  91 S6        30.17F
FT BELVOIR     CLEAR     67  66  94 SE2       30.17F
QUANTICO       CLEAR     72  69  90 NW7       30.19S
COLLEGE PARK*  PTCLDY    68  66  94 CALM      30.17F
LEESBURG*      PTCLDY    70  68  94 CALM      30.19F
MANASSAS*      PTCLDY    68  66  94 CALM      30.18F
GAITHERSBURG*  PTCLDY    70  64  83 SE3       30.22F

$$

MDZ006>007-011-014-290700-
BALTIMORE METRO

CITY           SKY/WX    TMP DP  RH WIND       PRES   REMARKS
BWI AIRPORT    CLOUDY    70  65  84 CALM      30.17F
MD SCIENCE CTR   N/A     78  64  61 MISG      30.17F
MARTIN STATE   CLOUDY    75  72  88 S3        30.18F
ANNAPOLIS      PTCLDY    75  69  81 S6        30.16F
FORT MEADE*    CLOUDY   N/A N/A N/A CALM      30.19F

$$

MDZ012-015-019>023-290700-
MARYLAND EASTERN SHORE

CITY           SKY/WX    TMP DP  RH WIND       PRES   REMARKS
OCEAN CITY     CLEAR     68  65  90 CALM      30.16F
SALISBURY      PTCLDY    67  66  97 CALM      30.17F
BAY BRIDGE AP* PTCLDY    72  68  88 CALM      30.17F
CAMBRIDGE*     CLEAR     64  63  94 CALM      30.17F
EASTON*        CLEAR     68  68  99 CALM      30.21F

$$

MDZ017>025-290700-
SOUTHERN MARYLAND

CITY           SKY/WX    TMP DP  RH WIND       PRES   REMARKS
PATUXENT RIVER CLEAR     70  66  87 CALM      30.17S
ST INIGOES     CLEAR     68  66  93 CALM      30.16F
LEONARDTOWN*   CLEAR     64  63  94 CALM      30.19S

$$

MDZ003>005-290700-
NORTH CENTRAL MARYLAND

CITY           SKY/WX    TMP DP  RH WIND       PRES   REMARKS
FREDERICK*     PTCLDY    68  68 100 SE5       30.19F
HAGERSTOWN APT CLOUDY    75  64  68 SE8       30.14F

$$

MDZ501>502-290700-
WESTERN MARYLAND

CITY           SKY/WX    TMP DP  RH WIND       PRES   REMARKS
OAKLAND*       MOCLDY    61  61 100 SE5       30.28F
CUMBERLAND*    MOCLDY    73  64  73 CALM      30.21F

$$

VAZ025>031-290700-
SHENANDOAH VALLEY

CITY           SKY/WX    TMP DP  RH WIND       PRES   REMARKS
WINCHESTER*    CLEAR     70  63  78 CALM      30.17F
FRONT ROYAL*   FAIR      68  66  94 CALM      30.18F
LURAY*         FAIR      68  68 100 CALM      30.20F
NEW MARKET*    FAIR     N/A N/A N/A CALM      30.19F
STAUNTON*      PTCLDY    65  63  94 CALM      30.24F
WAYNESBORO*    FAIR      66  63  90 CALM      30.23F

$$

WVZ021-048>050-054>055-290700-
EASTERN WEST VIRGINIA PANHANDLE

CITY           SKY/WX    TMP DP  RH WIND       PRES   REMARKS
MARTINSBURG    CLEAR     69  65  86 S5        30.15F
PETERSBURG*    PTCLDY    73  69  89 W3        30.19F

$$

VAZ036>039-050-290700-
CENTRAL FOOTHILLS

CITY           SKY/WX    TMP DP  RH WIND       PRES   REMARKS
CHARLOTTESVILL CLEAR     71  65  81 CALM      30.19F
CULPEPER*      CLEAR     67  67 100 CALM      30.19F
ORANGE*        NOT AVBL
GORDONSVILLE*  NOT AVBL
WARRENTON*     FAIR      66  62  85 SE6       30.18F

$$

VAZ055>057-290700-
NORTH AND CENTRAL PIEDMONT

CITY           SKY/WX    TMP DP  RH WIND       PRES   REMARKS
FREDERICKSBRG* CLEAR     68  68 100 CALM      30.18S
STAFFORD*      CLEAR     64  64  97 CALM      30.22F

$$

NCZ024-NYZ072-PAZ021-071-VAZ022-071-290700-
OTHER REGIONAL OBSERVATIONS

CITY           SKY/WX    TMP DP  RH WIND       PRES   REMARKS
NEW YORK CITY  PTCLDY    75  64  68 VRB5      30.18F
PHILADELPHIA   MOCLDY    75  68  78 S6        30.17S
PITTSBURGH     PTCLDY    69  66  90 CALM      30.20F
ROANOKE        PTCLDY    68  62  81 CALM      30.23F
RICHMOND       MOCLDY    69  66  90 N3        30.16F
RALEIGH        CLOUDY    75  69  81 NE6       30.16F

$$

ANZ530>537-290700-
MARINE OBSERVATIONS

STATION/POSITION TIME  TEMP    WIND        PRES
                       AIR SEA DIR/SP/G
                 (UTC) (F)     (DEG/KT/KT) (MB)
THOMAS PT LIGHT  0600   77 83  160/  8/  9 1023.0F
BALT KEY BRIDGE  0548          190/  5/  6 1021.5F
COVE POINT       0548          120/  5/  7 1022.3F
LEWISETTA        0548      84  100/  6/  7 1020.9F
SOLOMONS ISLAND  0548      84   90/  4/  6   N/A
PINEY POINT      0548           40/  5/  5   N/A

$$





USA.gov is the U.S. government's official web portal to all federal, state and local government web resources and services.